Terminal Aerodrome Forecast
Issued by NWS

Home | Current Version | Previous Version | Text Only | Print | Product List | Glossary On
Versions: 1 2 3 4 5 6 7 8 9 10 11 12 13 14 15 16 17 18 19 20 21 22 23 24
000
FTUS41 KCAR 011100
TAFBHB
TAF
KBHB 011120Z 0112/0212 04010KT P6SM OVC018
     FM011700 05009KT P6SM OVC015
     FM012100 04008KT P6SM BKN050
     FM020000 05009KT P6SM BKN015
      AMD LTD TO CLD VIS AND WIND=

USA.gov is the U.S. government's official web portal to all federal, state and local government web resources and services.